Location: Melbourne
(37.8666°S, 145.1333°E)
Time: 16:42:13
(UTC+10:00)

Iridium 21 - Visible Passes

Search period start: 28 July 2017 00:00
Search period end: 07 August 2017 00:00
Orbit: 776 x 779 km, 86.4° (Epoch: 26 July)

Date Brightness Start Highest point End Pass type
(mag) Time Alt. Az. Time Alt. Az. Time Alt. Az.
28 Jul 8.7 04:22:10 10° E 04:23:29 11° ESE 04:24:48 10° ESE visible
28 Jul 5.4 05:58:09 10° N 06:03:24 77° W 06:08:43 10° S visible
28 Jul 7.5 18:11:06 10° SSW 18:15:45 32° W 18:20:23 10° NW visible
29 Jul 6.2 05:24:48 10° NNE 05:29:56 57° E 05:35:07 10° S visible
30 Jul 7.3 04:52:03 10° NE 04:56:35 30° E 05:01:09 10° SSE visible
30 Jul 6.4 06:32:45 10° NW 06:37:13 28° W 06:41:44 10° SSW visible
30 Jul 8.7 18:47:03 10° WSW 18:48:53 12° WSW 18:50:43 10° W visible
31 Jul 8.2 04:20:09 10° ENE 04:23:21 16° E 04:26:33 10° SE visible
31 Jul 5.6 05:58:26 10° NNW 06:03:33 52° W 06:08:43 10° S visible
31 Jul 8.2 18:11:41 10° SSW 18:15:43 22° W 18:19:42 10° NW visible
01 Aug 5.5 05:24:45 10° N 05:29:59 84° E 05:35:19 10° S visible
02 Aug 6.6 04:51:37 10° NNE 04:56:34 44° E 05:01:35 10° SSE visible
02 Aug 6.8 06:33:46 10° WNW 06:37:29 19° WSW 06:41:15 10° SSW visible
03 Aug 7.7 04:19:08 10° NE 04:23:16 24° E 04:27:25 10° SSE visible
03 Aug 6.1 05:58:57 10° NNW 06:03:44 35° W 06:08:35 10° SSW visible
03 Aug 8.4 18:12:38 10° SW 18:15:37 15° WSW 18:18:37 10° WNW visible
04 Aug 8.4 03:47:52 10° ENE 03:50:05 13° ESE 03:52:19 10° SE visible
04 Aug 5.4 05:24:54 10° N 05:30:06 67° W 05:35:24 10° S visible
05 Aug 5.8 04:51:25 10° N 04:56:36 65° E 05:01:51 10° S visible
05 Aug 7.1 06:35:21 10° WNW 06:37:49 13° WSW 06:40:17 10° SW visible
06 Aug 7.0 04:18:32 10° NNE 04:23:14 34° E 04:27:59 10° SSE visible
06 Aug 6.5 05:59:43 10° NW 06:03:58 25° W 06:08:16 10° SSW visible
06 Aug 9.0 18:15:10 10° WSW 18:15:29 10° WSW 18:15:48 10° W visible
